292P/Li (2014)

Japanese version
Home page
Updated on June 11, 2016

---------------------------------------------------------------------

* Profile

Designation 292P/2013 O1
Recovery Date July 24, 2013
Magnitude 18.6 mag
Recoverer R. H. McNaught (Siding Spring)

* Pictures

* Orbital Elements

Epoch 2014 Jan. 23.0 TT = JDT 2456680.5
T 2014 Feb. 4.83137 TT                                  MPCW
q   2.5223629            (2000.0)            P               Q
n   0.06508397     Peri.  319.05881     +0.57207684     -0.70909049
a   6.1209671      Node    91.86352     +0.81799669     +0.45643775
e   0.5879143      Incl.   24.35759     +0.06007911     +0.53745256
P  15.1
From 470 observations 1998 Sept. 23-2015 Feb. 20, mean residual 0".6.

* Finding Charts

* Magnitudes Graph

        m1 =  2.5 + 5 log d + 30.0 log r  [ ,0]  (             - 2014 Feb.  4)
        m1 = 10.5 + 5 log d + 10.0 log r  [0, ]  (2014 Feb.  4 -             )

---------------------------------------------------------------------

The orbital elements are published on M.P.E.C. 2015-G03.
The charts are made with StellaNavigator Ver.8 (AstroArts).
The magnitudes graphs are made with Comet for Windows.

---------------------------------------------------------------------

Copyright(C) Seiichi Yoshida (comet@aerith.net). All rights reserved.